TimeAKDT,TemperatureF,Dew PointF,Humidity,Sea Level PressureIn,VisibilityMPH,Wind Direction,Wind SpeedMPH,Gust SpeedMPH,PrecipitationIn,Events,Conditions,WindDirDegrees,DateUTC
12:16 AM,53.6,51.8,94,29.59,8.0,Calm,Calm,-,N/A,,Mostly Cloudy,0,2013-07-03 08:16:00
12:36 AM,53.6,51.8,94,29.60,5.0,Calm,Calm,-,N/A,,Scattered Clouds,0,2013-07-03 08:36:00
12:56 AM,53.6,51.8,94,29.60,3.0,Calm,Calm,-,N/A,,Partly Cloudy,0,2013-07-03 08:56:00
1:16 AM,53.6,51.8,94,29.60,5.0,Calm,Calm,-,N/A,,Mostly Cloudy,0,2013-07-03 09:16:00
1:36 AM,53.6,51.8,94,29.61,5.0,Calm,Calm,-,N/A,,Scattered Clouds,0,2013-07-03 09:36:00
1:56 AM,51.8,51.8,100,29.62,2.5,SW,3.5,-,N/A,,Mostly Cloudy,220,2013-07-03 09:56:00
2:16 AM,51.8,50.0,94,29.63,0.2,SW,4.6,-,N/A,,Overcast,220,2013-07-03 10:16:00
2:36 AM,51.8,51.8,100,29.63,0.2,SW,5.8,-,N/A,,Overcast,220,2013-07-03 10:36:00
2:56 AM,50.0,50.0,100,29.63,0.2,SW,5.8,-,N/A,,Overcast,220,2013-07-03 10:56:00
3:16 AM,50.0,48.2,94,29.64,0.2,SW,3.5,-,N/A,,Overcast,220,2013-07-03 11:16:00
3:36 AM,48.2,46.4,93,29.65,0.2,Calm,Calm,-,N/A,,Overcast,0,2013-07-03 11:36:00
3:56 AM,48.2,46.4,93,29.65,2.0,SW,4.6,-,N/A,,Overcast,230,2013-07-03 11:56:00
4:16 AM,51.8,48.2,88,29.65,10.0,WSW,8.1,-,N/A,,Overcast,250,2013-07-03 12:16:00
4:36 AM,51.8,46.4,82,29.65,10.0,WSW,11.5,-,N/A,,Mostly Cloudy,250,2013-07-03 12:36:00
4:56 AM,51.8,46.4,82,29.65,10.0,WSW,13.8,-,N/A,,Clear,240,2013-07-03 12:56:00
5:16 AM,50.0,46.4,87,29.66,10.0,SW,11.5,-,N/A,,Clear,230,2013-07-03 13:16:00
5:36 AM,50.0,44.6,82,29.67,10.0,SW,8.1,-,N/A,,Clear,230,2013-07-03 13:36:00
5:56 AM,51.8,46.4,82,29.67,10.0,SW,11.5,-,N/A,,Clear,230,2013-07-03 13:56:00
6:16 AM,51.8,46.4,82,29.67,10.0,WSW,15.0,-,N/A,,Clear,240,2013-07-03 14:16:00
6:36 AM,51.8,44.6,76,29.67,10.0,WSW,13.8,-,N/A,,Clear,240,2013-07-03 14:36:00
6:56 AM,51.8,44.6,76,29.68,10.0,WSW,15.0,-,N/A,,Clear,250,2013-07-03 14:56:00
7:16 AM,51.8,44.6,76,29.69,10.0,West,15.0,-,N/A,,Clear,260,2013-07-03 15:16:00
7:36 AM,51.8,44.6,76,29.69,10.0,WSW,15.0,18.4,N/A,,Clear,250,2013-07-03 15:36:00
7:56 AM,53.6,44.6,72,29.70,10.0,WSW,11.5,-,N/A,,Clear,250,2013-07-03 15:56:00
8:16 AM,53.6,44.6,72,29.70,10.0,WSW,12.7,-,N/A,,Clear,240,2013-07-03 16:16:00
8:36 AM,53.6,46.4,77,29.70,10.0,WSW,13.8,-,N/A,,Clear,240,2013-07-03 16:36:00
8:56 AM,55.4,46.4,72,29.71,10.0,WSW,13.8,-,N/A,,Clear,240,2013-07-03 16:56:00
9:16 AM,57.2,46.4,67,29.71,10.0,WSW,12.7,-,N/A,,Clear,240,2013-07-03 17:16:00
9:36 AM,57.2,46.4,67,29.72,10.0,SW,11.5,-,N/A,,Clear,230,2013-07-03 17:36:00
9:56 AM,59.0,44.6,59,29.72,10.0,SW,11.5,-,N/A,,Clear,230,2013-07-03 17:56:00
10:16 AM,60.8,44.6,55,29.72,10.0,SW,10.4,-,N/A,,Clear,230,2013-07-03 18:16:00
10:36 AM,60.8,44.6,55,29.73,10.0,SW,10.4,-,N/A,,Clear,230,2013-07-03 18:36:00
10:56 AM,62.6,44.6,52,29.73,10.0,SW,10.4,-,N/A,,Clear,230,2013-07-03 18:56:00
11:16 AM,62.6,42.8,48,29.73,10.0,SSW,9.2,-,N/A,,Clear,210,2013-07-03 19:16:00
11:36 AM,62.6,42.8,48,29.73,10.0,SW,9.2,-,N/A,,Clear,230,2013-07-03 19:36:00
11:56 AM,64.4,42.8,45,29.74,10.0,SW,15.0,18.4,N/A,,Clear,230,2013-07-03 19:56:00
12:16 PM,62.6,41.0,45,29.74,10.0,WSW,10.4,-,N/A,,Partly Cloudy,250,2013-07-03 20:16:00
12:36 PM,64.4,41.0,42,29.74,10.0,West,13.8,23.0,N/A,,Scattered Clouds,280,2013-07-03 20:36:00
12:56 PM,64.4,39.2,40,29.75,10.0,SSW,9.2,18.4,N/A,,Scattered Clouds,210,2013-07-03 20:56:00
1:16 PM,64.4,39.2,40,29.75,10.0,West,8.1,17.3,N/A,,Partly Cloudy,270,2013-07-03 21:16:00
1:36 PM,64.4,39.2,40,29.76,10.0,SW,11.5,18.4,N/A,,Clear,220,2013-07-03 21:36:00
1:56 PM,66.2,39.2,37,29.76,10.0,West,15.0,-,N/A,,Clear,260,2013-07-03 21:56:00
2:16 PM,66.2,37.4,35,29.76,10.0,SW,10.4,18.4,N/A,,Clear,230,2013-07-03 22:16:00
2:36 PM,66.2,35.6,32,29.77,10.0,WSW,13.8,-,N/A,,Clear,240,2013-07-03 22:36:00
2:56 PM,66.2,37.4,35,29.77,10.0,SW,15.0,19.6,N/A,,Clear,230,2013-07-03 22:56:00
3:16 PM,66.2,37.4,35,29.77,10.0,SW,10.4,18.4,N/A,,Clear,230,2013-07-03 23:16:00
3:36 PM,66.2,37.4,35,29.77,7.0,SW,11.5,19.6,N/A,,Clear,220,2013-07-03 23:36:00
3:56 PM,66.2,35.6,32,29.77,10.0,SW,10.4,20.7,N/A,,Clear,220,2013-07-03 23:56:00
4:16 PM,66.2,35.6,32,29.77,7.0,WSW,11.5,20.7,N/A,,Clear,240,2013-07-04 00:16:00
4:36 PM,66.2,37.4,35,29.77,10.0,SSW,11.5,17.3,N/A,,Clear,210,2013-07-04 00:36:00
4:56 PM,66.2,39.2,37,29.77,6.0,SSW,10.4,18.4,N/A,,Clear,210,2013-07-04 00:56:00
5:16 PM,68.0,39.2,35,29.77,9.0,SW,16.1,23.0,N/A,,Clear,230,2013-07-04 01:16:00
5:36 PM,66.2,39.2,37,29.77,10.0,SW,13.8,20.7,N/A,,Clear,220,2013-07-04 01:36:00
5:56 PM,66.2,39.2,37,29.77,10.0,SW,17.3,24.2,N/A,,Clear,230,2013-07-04 01:56:00
6:16 PM,66.2,37.4,35,29.77,10.0,SSW,12.7,23.0,N/A,,Clear,210,2013-07-04 02:16:00
6:36 PM,66.2,37.4,35,29.77,10.0,SSW,13.8,21.9,N/A,,Clear,210,2013-07-04 02:36:00
6:56 PM,66.2,39.2,37,29.77,10.0,SW,13.8,20.7,N/A,,Clear,220,2013-07-04 02:56:00
7:16 PM,66.2,37.4,35,29.77,10.0,SW,16.1,24.2,N/A,,Clear,230,2013-07-04 03:16:00
7:36 PM,64.4,35.6,34,29.78,10.0,SW,16.1,21.9,N/A,,Clear,230,2013-07-04 03:36:00
7:56 PM,64.4,37.4,37,29.78,10.0,SW,13.8,19.6,N/A,,Clear,220,2013-07-04 03:56:00
8:16 PM,64.4,35.6,34,29.78,10.0,SW,16.1,20.7,N/A,,Clear,220,2013-07-04 04:16:00
8:36 PM,64.4,35.6,34,29.79,10.0,SW,15.0,20.7,N/A,,Clear,220,2013-07-04 04:36:00
8:56 PM,64.4,35.6,34,29.79,10.0,SW,15.0,21.9,N/A,,Clear,220,2013-07-04 04:56:00
9:16 PM,62.6,35.6,37,29.79,10.0,SW,12.7,21.9,N/A,,Clear,220,2013-07-04 05:16:00
9:36 PM,62.6,35.6,37,29.80,10.0,SW,13.8,-,N/A,,Clear,220,2013-07-04 05:36:00
9:56 PM,62.6,35.6,37,29.80,10.0,SW,12.7,18.4,N/A,,Clear,230,2013-07-04 05:56:00
10:16 PM,62.6,35.6,37,29.80,10.0,SW,12.7,-,N/A,,Clear,230,2013-07-04 06:16:00
10:36 PM,60.8,37.4,42,29.81,10.0,SW,9.2,-,N/A,,Clear,230,2013-07-04 06:36:00
10:56 PM,60.8,35.6,39,29.81,10.0,SW,11.5,17.3,N/A,,Clear,230,2013-07-04 06:56:00
11:16 PM,60.8,37.4,42,29.81,10.0,SW,10.4,-,N/A,,Clear,230,2013-07-04 07:16:00
11:36 PM,59.0,37.4,45,29.81,10.0,SW,10.4,-,N/A,,Clear,220,2013-07-04 07:36:00
11:56 PM,57.2,37.4,48,29.82,10.0,WSW,8.1,-,N/A,,Clear,250,2013-07-04 07:56:00